Flag for Germany Weather past 2 weeks in Darmstadt, Hesse, Germany

Now
72 °F

Sunny.


Feels Like: 76 °F
Forecast: 57 / 80 °F
Wind: 2 mph from East

Location: Frankfurt-M-Flughafen Airport

Current Time: Jul 31, 2014 at 9:54:08 PM

Latest Report: Jul 31, 2014 at 9:20 PM


Visibility: 10 mi

Pressure: 29.92 "Hg

Humidity: 57%

Dew point: 55 °F

Location of DarmstadtLocation

Historic Weather in Darmstadt — Graph

°F

Darmstadt temperature yesterday

Maximum temperature yesterday: 73 °F (at 3:50 PM)
Minimum temperature yesterday: 66 °F (at 12:20 AM)
Average temperature yesterday: 70 °F

Past Weeks' High & Low Weather Summary

 TemperatureHumidityPressure
High93 °F (Jul 19, 4:20 PM)100% (Jul 17, 4:50 AM)30.18 "Hg (Jul 17, 4:50 AM)
Low59 °F (Jul 17, 4:50 AM)23% (Jul 18, 6:20 PM)29.71 "Hg (Jul 29, 4:50 PM)
Average73 °F68%29.93 "Hg
* Reported Jul 16 8:20 PM — Jul 31 8:20 PM, Darmstadt, Weather by CustomWeather, © 2014

Note: Actual official high and low records may vary slightly from our data, if they occured in-between our weather recording intervals... More about our weather records

Advertising

Darmstadt weather history for previous 24 hours

 ConditionsComfort  
Time TempWeatherWind HumidityBarometerVisibility
8:20 PM
Jul 31
77 °FSunny.3 mph44%29.92 "Hg10 mi
7:50 PM77 °FSunny.3 mph44%29.92 "Hg10 mi
7:20 PM77 °FSunny.3 mph42%29.92 "Hg10 mi
6:50 PM77 °FSunny.5 mph42%29.92 "Hg10 mi
6:20 PM77 °FSunny.5 mph44%29.92 "Hg10 mi
5:50 PM79 °FSunny.3 mph39%29.95 "Hg10 mi
5:20 PM77 °FSunny.5 mph44%29.95 "Hg10 mi
4:50 PM79 °FSunny.3 mph42%29.95 "Hg10 mi
4:20 PM79 °FSunny.6 mph37%29.95 "Hg10 mi
3:50 PM77 °FSunny.6 mph42%29.95 "Hg10 mi
3:20 PM77 °FSunny.2 mph44%29.98 "Hg10 mi
2:50 PM77 °FSunny.2 mph47%29.98 "Hg10 mi
2:20 PM77 °FPassing clouds.5 mph47%29.98 "HgN/A
1:50 PM75 °FScattered clouds.6 mph50%29.98 "HgN/A
1:20 PM75 °FScattered clouds.5 mph50%29.98 "HgN/A
12:50 PM75 °FScattered clouds.6 mph50%30.01 "HgN/A
12:20 PM73 °FScattered clouds.2 mph61%30.01 "HgN/A
11:50 AM72 °FScattered clouds.2 mph61%30.01 "HgN/A
11:20 AM72 °FScattered clouds.2 mph61%30.01 "HgN/A
10:50 AM72 °FScattered clouds.5 mph73%30.01 "HgN/A
10:20 AM72 °FPassing clouds.5 mph65%30.01 "HgN/A
9:50 AM70 °FPassing clouds.3 mph69%30.01 "HgN/A
9:20 AM68 °FPassing clouds.2 mph73%30.01 "HgN/A
8:50 AM68 °FPassing clouds.3 mph73%30.01 "HgN/A
8:20 AM66 °FSunny.2 mph78%30.01 "Hg10 mi
7:50 AM66 °FSunny.2 mph78%30.01 "Hg10 mi
7:20 AM64 °FSunny.1 mph83%30.01 "Hg10 mi
6:50 AM63 °FClear.1 mph83%30.01 "Hg10 mi
6:20 AM63 °FClear.7 mph83%29.98 "Hg10 mi
5:50 AM63 °FClear.6 mph83%29.98 "Hg10 mi
5:20 AM64 °FClear.3 mph78%29.98 "Hg10 mi
4:50 AM64 °FClear.5 mph78%29.98 "Hg10 mi
4:20 AM64 °FPassing clouds.7 mph78%29.98 "HgN/A
3:50 AM66 °FPassing clouds.3 mph78%29.98 "HgN/A
3:20 AM64 °FPassing clouds.2 mph83%29.98 "HgN/A
2:50 AM64 °FClear.1 mph83%29.98 "Hg10 mi
2:20 AM64 °FClear.1 mph83%29.98 "Hg10 mi
1:50 AM64 °FClear.1 mph83%29.98 "Hg10 mi
1:20 AM66 °FClear.5 mph78%29.95 "Hg10 mi
12:50 AM68 °FClear.5 mph73%29.95 "Hg10 mi
12:20 AM68 °FClear.6 mph73%29.95 "Hg10 mi
11:50 PM
Jul 30
68 °FClear.6 mph73%29.95 "Hg10 mi
11:20 PM70 °FClear.3 mph69%29.95 "Hg10 mi
10:50 PM70 °FClear.6 mph64%29.95 "Hg10 mi
10:20 PM70 °FClear.6 mph64%29.95 "Hg10 mi
9:50 PM70 °FSunny.6 mph64%29.95 "Hg10 mi
9:20 PM72 °FPartly sunny.6 mph61%29.92 "HgN/A
Weather by CustomWeather, © 2014

See weather overviewHow to use our weather pages